If you wish to contribute or participate in the discussions about articles you are invited to join SKYbrary as a registered user

 Actions

Jeju

From SKYbrary Wiki

RKPC
Airport
ICAO: RKPC
Summary
Name Jeju
Region Asia and Pacific
Territory South Korea KR.gif
Location Jeju
Serving
Coordinates 33° 30' 26.7433", 126° 29' 36.3235"
Runways
Designator Length Width Surface ROPS
6/24 3000 m9,842.52 ft 45 m147.638 ft ASP no/no
13/31 1910 m6,266.404 ft 45 m147.638 ft ASP yes/yes


METAR
Observation RKPC 150800Z 09012KT 9999 FEW030 SCT120 BKN180 18/11 Q1022 NOSIG
Station Cheju International Airport
Date/Time 15 November 2018 08:00:00
Wind direction 90°
Wind speed 12 kts
Lowest cloud amount few clouds
Temperature 18°C
Dew point 11°C
Humidity 63%
QNH 1022 hPa
Weather condition n/a


Jeju International Airport

ICAO: RKPC IATA: CJU

Description

Jeju International Airport serves many mainland destinations in South Korea, as well as international destinations in China, Japan, and Taiwan.

Climatology

Warm continental climate/Humid continental climate/Humid subtropical climate (Köppen climate classification Dwa/Cwa)

Maps

Terrain

Loading map...

Airport Layout

Loading map...


Accidents & Serious Incidents at or in vicinity of RKPC

None on SKYbrary